Weather History for KRSN - February, 2014

Change the Weather History Date:

Wednesday, February 26, 2014

  Actual Average Record
Temperature  
Mean Temperature 35 °F -  
Max Temperature 43 °F 63 °F 87 °F (1977)
Min Temperature 26 °F 38 °F 20 °F (1960)
Degree Days  
Heating Degree Days 30    
Moisture  
Dew Point 28 °F    
Average Humidity 73    
Maximum Humidity 97    
Minimum Humidity 42    
Precipitation  
Precipitation 0.02 in - - ()
Sea Level Pressure  
Sea Level Pressure 30.17 in    
Wind  
Wind Speed 10 mph (NNE)    
Max Wind Speed 17 mph    
Max Gust Speed 25 mph    
Visibility 10 miles    
Events Rain    
Averages and records for this station are not official NWS values.
T = Trace of Precipitation, MM = Missing Value Source: NWS Daily Summary

Daily Weather History Graph

Daily Weather History Graph

Search for Another Location

Airport or City:

Trip Planner

Search our weather history database for the weather conditions in past years. The results will help you decide how hot, cold, wet, or windy it might be!

Date:

Astronomy

Feb. 26, 2014 Rise Set
Actual Time 6:41 AM CST 6:05 PM CST
Civil Twilight 6:16 AM CST 6:30 PM CST
Nautical Twilight 5:48 AM CST 6:58 PM CST
Astronomical Twilight 5:19 AM CST 7:27 PM CST
Moon 4:20 AM CST (2/26) 3:26 PM CST (2/26)
Length of Visible Light 12h 13m
Length of Day
11h 24m
Waning Crescent, 10% of the Moon is Illuminated
Feb 26
Waning Crescent
Mar 1
New
Mar 8
First Quarter
Mar 16
Full
Mar 23
Last Quarter

Hourly Weather History & Observations

Time (CST) Temp. Windchill Dew Point Humidity Pressure Visibility Wind Dir Wind Speed Gust Speed Precip Events Conditions
12:15 AM 43.2 °F 37.4 °F 41.5 °F 94% 30.06 in 10.0 mi NE 10.4 mph - 0.01 in Rain Light Rain
12:35 AM 42.8 °F 37.0 °F 41.0 °F 93% 30.09 in 10.0 mi North 10.4 mph - 0.01 in Rain Rain
12:55 AM 42.4 °F 36.1 °F 40.6 °F 93% 30.10 in 10.0 mi NNE 11.5 mph 17.3 mph 0.01 in   Overcast
1:15 AM 41.9 °F 35.9 °F 39.2 °F 90% 30.10 in 10.0 mi NNE 10.4 mph - N/A   Overcast
1:35 AM 41.5 °F 36.4 °F 39.4 °F 92% 30.10 in 10.0 mi NNE 8.1 mph - N/A   Overcast
1:55 AM 41.7 °F 36.1 °F 39.4 °F 91% 30.11 in 10.0 mi North 9.2 mph - N/A   Overcast
2:20 AM 41.0 °F 34.3 °F 38.3 °F 90% 30.11 in 10.0 mi NNE 11.5 mph 19.6 mph N/A Rain Light Rain
2:35 AM 40.5 °F 33.6 °F 37.9 °F 91% 30.15 in 10.0 mi North 11.5 mph 18.4 mph N/A Rain Light Rain
2:55 AM 40.1 °F 32.4 °F 37.9 °F 92% 30.14 in 10.0 mi NNE 13.8 mph 17.3 mph N/A   Drizzle
3:15 AM 39.2 °F 30.5 °F 36.9 °F 91% 30.11 in 10.0 mi NE 16.1 mph 19.6 mph N/A Rain Light Rain
3:35 AM 38.3 °F 30.5 °F 36.5 °F 93% 30.12 in 7.0 mi NNE 12.7 mph 18.4 mph 0.01 in Rain Light Rain
3:55 AM 37.6 °F 28.1 °F 34.9 °F 90% 30.13 in 10.0 mi NNE 17.3 mph 25.3 mph 0.01 in   Light Drizzle
4:15 AM 37.0 °F 28.5 °F 34.9 °F 92% 30.15 in 10.0 mi NNE 13.8 mph 25.3 mph N/A   Light Drizzle
4:35 AM 36.9 °F 27.5 °F 34.7 °F 92% 30.16 in 10.0 mi NNE 16.1 mph 21.9 mph N/A   Overcast
4:55 AM 36.7 °F 27.6 °F 34.2 °F 91% 30.17 in 10.0 mi NNE 15.0 mph 21.9 mph N/A Rain Light Rain
5:15 AM 36.5 °F 28.7 °F 33.8 °F 90% 30.19 in 10.0 mi NNE 11.5 mph 21.9 mph N/A Rain Light Rain
5:35 AM 36.5 °F 27.0 °F 32.9 °F 87% 30.19 in 10.0 mi NNE 16.1 mph 20.7 mph N/A   Overcast
5:55 AM 36.5 °F 28.7 °F 32.7 °F 86% 30.20 in 10.0 mi NNE 11.5 mph 21.9 mph N/A   Overcast
6:15 AM 36.1 °F 27.7 °F 32.4 °F 86% 30.20 in 10.0 mi NNE 12.7 mph 19.6 mph N/A   Overcast
6:35 AM 36.0 °F 29.0 °F 32.2 °F 86% 30.20 in 10.0 mi NE 9.2 mph 18.4 mph N/A   Overcast
6:55 AM 35.8 °F 27.8 °F 30.6 °F 81% 30.21 in 10.0 mi NE 11.5 mph 24.2 mph N/A   Overcast
7:15 AM 35.6 °F 26.6 °F 30.0 °F 80% 30.21 in 10.0 mi NNE 13.8 mph 19.6 mph N/A   Overcast
7:35 AM 35.6 °F 28.0 °F 30.2 °F 81% 30.22 in 10.0 mi NNE 10.4 mph - N/A   Overcast
7:55 AM 35.6 °F 27.1 °F 29.7 °F 79% 30.22 in 10.0 mi NNE 12.7 mph 17.3 mph N/A   Overcast
8:15 AM 35.6 °F 27.5 °F 29.5 °F 78% 30.22 in 10.0 mi NNE 11.5 mph 19.6 mph N/A   Overcast
8:35 AM 35.6 °F 28.6 °F 28.6 °F 76% 30.23 in 10.0 mi NE 9.2 mph 20.7 mph N/A   Overcast
8:55 AM 35.8 °F 27.8 °F 28.2 °F 74% 30.24 in 10.0 mi NNE 11.5 mph 18.4 mph N/A   Overcast
9:15 AM 36.5 °F 28.7 °F 26.2 °F 66% 30.24 in 10.0 mi NE 11.5 mph 19.6 mph N/A   Overcast
9:35 AM 37.0 °F 28.1 °F 24.8 °F 61% 30.24 in 10.0 mi NNE 15.0 mph 21.9 mph N/A   Overcast
9:55 AM 37.2 °F 28.7 °F 26.2 °F 65% 30.24 in 10.0 mi NNE 13.8 mph 18.4 mph N/A   Overcast
10:15 AM 37.9 °F 30.5 °F 26.6 °F 64% 30.24 in 10.0 mi NNE 11.5 mph 20.7 mph N/A   Overcast
10:35 AM 37.9 °F 30.0 °F 27.1 °F 65% 30.24 in 10.0 mi NNE 12.7 mph 20.7 mph N/A   Mostly Cloudy
10:55 AM 38.1 °F 31.2 °F 25.2 °F 60% 30.23 in 10.0 mi NNE 10.4 mph 18.4 mph N/A   Mostly Cloudy
11:15 AM 38.5 °F 30.7 °F 25.5 °F 60% 30.24 in 10.0 mi North 12.7 mph - N/A   Mostly Cloudy
11:35 AM 38.3 °F 29.7 °F 25.0 °F 59% 30.23 in 10.0 mi North 15.0 mph 19.6 mph N/A   Mostly Cloudy
11:55 AM 39.0 °F 31.8 °F 25.2 °F 58% - 10.0 mi North 11.5 mph - N/A   Mostly Cloudy
12:15 PM 39.6 °F 33.0 °F 25.3 °F 57% 30.23 in 10.0 mi North 10.4 mph 17.3 mph N/A   Mostly Cloudy
12:35 PM 39.6 °F 33.5 °F 24.1 °F 54% 30.21 in 10.0 mi North 9.2 mph - N/A   Scattered Clouds
12:55 PM 39.9 °F 33.9 °F 23.4 °F 52% 30.19 in 10.0 mi NE 9.2 mph - N/A   Clear
1:15 PM 40.1 °F 34.1 °F 23.2 °F 51% 30.19 in 10.0 mi North 9.2 mph - N/A   Clear
1:35 PM 39.9 °F 34.5 °F 20.8 °F 47% 30.18 in 10.0 mi North 8.1 mph 16.1 mph N/A   Clear
1:55 PM 41.2 °F 34.1 °F 21.4 °F 45% 30.16 in 10.0 mi North 12.7 mph 17.3 mph N/A   Clear
2:15 PM 40.6 °F 34.3 °F 20.1 °F 44% 30.15 in 10.0 mi North 10.4 mph - N/A   Clear
2:35 PM 41.5 °F 35.0 °F 20.1 °F 42% 30.14 in 10.0 mi North 11.5 mph - N/A   Clear
2:55 PM 41.4 °F 37.6 °F 20.3 °F 43% 30.14 in 10.0 mi North 5.8 mph - N/A   Clear
3:15 PM 41.2 °F 35.5 °F 20.7 °F 44% 30.14 in 10.0 mi North 9.2 mph - N/A   Clear
3:35 PM 41.2 °F 36.0 °F 20.8 °F 44% 30.14 in 10.0 mi NNE 8.1 mph - N/A   Clear
3:55 PM 41.7 °F 36.7 °F 21.9 °F 45% 30.14 in 10.0 mi North 8.1 mph - N/A   Clear
4:15 PM 41.2 °F 35.5 °F 21.6 °F 46% 30.14 in 10.0 mi North 9.2 mph - N/A   Clear
4:35 PM 41.2 °F 35.5 °F 21.4 °F 45% 30.13 in 10.0 mi North 9.2 mph - N/A   Clear
4:55 PM 40.8 °F 36.2 °F 20.8 °F 45% 30.14 in 10.0 mi North 6.9 mph - N/A   Clear
5:15 PM 40.5 °F 35.8 °F 21.7 °F 47% 30.14 in 10.0 mi North 6.9 mph - N/A   Clear
5:35 PM 40.3 °F 38.2 °F 22.8 °F 50% 30.14 in 10.0 mi NNE 3.5 mph - N/A   Clear
5:55 PM 40.1 °F 36.9 °F 23.2 °F 51% 30.14 in 10.0 mi NNE 4.6 mph - N/A   Clear
6:15 PM 39.4 °F 35.2 °F 24.1 °F 54% 30.14 in 10.0 mi NNE 5.8 mph - N/A   Clear
6:35 PM 39.2 °F 37.0 °F 23.5 °F 53% 30.15 in 10.0 mi NE 3.5 mph - N/A   Clear
6:55 PM 38.3 °F - 23.9 °F 56% 30.15 in 10.0 mi Calm Calm - N/A   Clear
7:15 PM 37.8 °F - 25.0 °F 60% 30.15 in 10.0 mi Calm Calm - N/A   Clear
7:35 PM 34.2 °F - 27.3 °F 76% 30.15 in 10.0 mi Calm Calm - N/A   Clear
8:00 PM 32.5 °F - 27.3 °F 81% 30.16 in 10.0 mi Calm Calm - N/A   Clear
8:15 PM 32.0 °F - 27.3 °F 83% 30.16 in 10.0 mi Calm Calm - N/A   Clear
8:35 PM 30.9 °F - 27.3 °F 86% 30.16 in 10.0 mi Calm Calm - N/A   Clear
8:55 PM 29.8 °F - 27.1 °F 90% 30.17 in 10.0 mi Calm Calm - N/A   Clear
9:15 PM 30.0 °F - 27.3 °F 90% 30.17 in 10.0 mi Calm Calm - N/A   Clear
9:35 PM 28.8 °F - 27.1 °F 94% 30.18 in 10.0 mi Calm Calm - N/A   Clear
9:55 PM 28.4 °F - 27.1 °F 95% 30.17 in 10.0 mi Calm Calm - N/A   Clear
10:15 PM 28.2 °F - 27.0 °F 95% 30.18 in 10.0 mi Calm Calm - N/A   Clear
10:35 PM 28.0 °F - 26.8 °F 95% 30.18 in 10.0 mi Calm Calm - N/A   Clear
10:55 PM 27.9 °F - 26.6 °F 95% 30.17 in 10.0 mi Calm Calm - N/A   Clear
11:15 PM 27.5 °F - 26.6 °F 96% 30.17 in 10.0 mi Calm Calm - N/A   Clear
11:35 PM 27.3 °F - 26.6 °F 97% 30.16 in 10.0 mi Calm Calm - N/A   Clear
11:55 PM 26.8 °F - 26.1 °F 97% 30.17 in 10.0 mi Calm Calm - N/A   Clear